Regional Weather Roundup
Issued by NWS Jackson, KY

Home | Current Version | Previous Version | Text Only | Print | Product List | Glossary On
Versions: 1 2 3 4 5 6 7 8 9 10 11 12 13 14 15 16 17 18 19 20 21 22 23 24 25 26 27 28 29 30 31 32 33 34 35 36 37 38 39 40 41 42 43 44 45 46 47 48 49 50
000
ASUS43 KJKL 290110
RWRJKL

EAST KENTUCKY HOURLY WEATHER ROUNDUP
NATIONAL WEATHER SERVICE JACKSON KY
900 PM EDT TUE JUL 28 2015

NOTE: "FAIR" INDICATES FEW OR NO CLOUDS BELOW 12,000 FEET WITH
NO SIGNIFICANT WEATHER AND/OR OBSTRUCTIONS TO VISIBILITY.

* THESE REPORTS ARE NOT UNDER NWS QUALITY CONTROL AND MAY NOT
  REPORT WEATHER SUCH AS PRECIPITATION AND FOG.

KYZ079-080-083-085-087-088-110-112-115-119-120-290200
...EASTERN KENTUCKY...

CITY           SKY/WX    TMP DP  RH WIND       PRES   REMARKS
JACKSON        CLEAR     78  74  87 CALM      29.99S
LONDON         CLOUDY    80  68  66 NW10G20   30.01R
SOMERSET*      LGT RAIN  72  72 100 CALM      30.02S
MONTICELLO*    MOCLDY    77  72  84 CALM      30.04R
MIDDLESBORO*   PTCLDY    76  74  92 CALM      30.00S
HAZARD APT*    CLEAR     77  75  94 SW3       30.00R
PIKEVILLE APT* CLEAR     81  73  78 W3        29.99S
BIG SANDY*     CLEAR     81  76  85 CALM      29.98S
MOREHEAD APT*  CLEAR     79  73  83 S3        29.99R
$$

KYZ035-036-041-042-044-050-067-078-099-290200
...CENTRAL KENTUCKY...

CITY           SKY/WX    TMP DP  RH WIND       PRES   REMARKS
MT STERLING*   PTCLDY    77  73  88 SW5       29.99S
FLEMING/MASON* PTCLDY    79  75  89 SW5       29.97R
DANVILLE*      MOCLDY    73  70  88 CALM      30.00S
RICHMOND*      MOCLDY    75  72  88 CALM      29.98R
LEXINGTON      PTCLDY    77  73  87 S6        29.98R
FRANKFORT      PTCLDY    80  73  79 SW7       29.95R
$$

KYZ091>093-OHZ055-061-077-WVZ005-015-034-035-042-290200
...SOUTHERN OHIO/WEST VIRGINIA...

CITY           SKY/WX    TMP DP  RH WIND       PRES   REMARKS
COVINGTON      MOCLDY    86  69  56 CALM      29.94S HX  90
COLUMBUS       MOCLDY    82  69  64 E5        29.95R
DAYTON         MOCLDY    81  71  71 E6        29.96R
WILMINGTON     PTCLDY    79  73  82 E3        29.96R
HUNTINGTON     PTCLDY    83  72  69 CALM      29.94S
CHARLESTON     PTCLDY    81  74  79 CALM      29.96R
PINEVILLE*     CLEAR     75  74  97 MISG      30.06S
BECKLEY        CLEAR     75  70  84 CALM      30.06S
BLUEFIELD      PTCLDY    76  67  73 SE5       30.09S
$$

VAZ002-007-008-TNZ017-027-036-066-071-290200
...SOUTHWEST VIRGINIA/EAST TENNESSEE...

CITY           SKY/WX    TMP DP  RH WIND       PRES   REMARKS
WISE*          PTCLDY    77  66  69 CALM      30.09R
ABINGDON*      LGT RAIN  78  68  71 W3        30.06R
BRISTOL        MOCLDY    75  69  81 CALM      30.01R
KNOXVILLE      CLOUDY    79  73  82 E3        29.98R
OAK RIDGE      MOCLDY    79  72  79 CALM      30.00R
CROSSVILLE     MOCLDY    75  69  81 CALM      30.06R
NASHVILLE      CLOUDY    77  74  91 CALM      29.99R
$$

...KEY TO REMARKS...
VSB - VISIBILITY IN MILES
WCI - WIND CHILL INDEX
HX  - HEAT INDEX

$$


USA.gov is the U.S. government's official web portal to all federal, state and local government web resources and services.